Dewpoint
59 59 59 58 58 59 58 57 58 59 58 59 59 59 59 59 59 59 58 58 60 59 58 58 58 59 59 59 60 58 53 25 25 20 14 19 38 56 53 56 58 58 50 26 19 18 13 15 16 17 19 21 23 26 27 30 32 37 34 31 31 30 31 32 30 29 26 29 24 24 34 33 33 34 33 32 32 34 35 36 34 35 36 37 37 39 44 45
59 59 59 58 58 58 58 58 58 58 57 59 59 59 59 59 59 58 59 59 60 59 58 59 58 59 60 59 59 57 40 26 19 19 17 41 56 56 60 59 59 58 52 23 18 15 14 15 15 15 15 23 19 26 26 25 28 34 34 32 27 31 31 32 31 30 28 27 22 26 32 36 32 32 30 30 28 30 30 26 26 35 35 38 40 42 44 44
58 58 59 58 58 58 58 58 58 58 59 59 60 58 58 59 59 59 58 59 60 59 59 59 59 58 59 59 59 56 38 13 18 17 19 52 55 57 57 59 57 53 32 22 22 18 13 14 15 13 13 19 18 24 26 24 27 30 32 29 29 32 29 30 27 28 26 20 20 23 33 36 29 24 25 28 26 23 23 20 19 21 18 17 38 41 43 43
58 58 58 58 58 58 58 59 59 59 59 59 59 60 59 59 59 59 59 59 60 60 59 60 58 59 58 59 59 52 21 16 11 17 20 49 56 58 60 58 57 46 33 28 23 25 19 16 16 14 16 20 17 19 25 26 29 28 30 28 28 29 28 27 29 25 19 19 20 24 35 32 17 16 17 21 27 22 18 20 21 20 20 20 26 40 43 43
57 57 58 58 58 58 57 58 59 58 59 59 59 59 60 60 59 59 59 59 60 60 60 59 60 59 59 59 51 44 24 4 10 18 28 54 58 61 58 55 55 44 33 25 19 18 19 15 13 18 19 20 18 19 19 20 24 29 26 26 25 27 25 18 21 18 16 19 22 28 26 26 17 17 18 18 18 17 21 24 28 29 32 31 27 40 41 41
57 58 57 57 57 57 57 57 58 58 59 59 58 58 58 59 57 58 59 59 59 60 59 60 60 59 59 56 39 30 13 -8 26 17 53 56 58 59 56 56 50 42 26 20 21 15 13 11 12 16 16 16 17 19 17 18 20 22 26 22 24 24 21 14 13 13 16 17 17 21 22 20 16 17 19 20 21 22 26 29 32 36 37 37 35 40 40 41
57 57 57 57 57 57 57 57 57 58 58 57 58 58 58 58 57 58 58 59 59 60 60 60 59 59 58 51 43 17 6 4 20 25 50 53 56 59 57 53 43 35 24 19 16 15 13 10 11 17 16 18 17 14 15 16 17 19 19 17 18 21 19 13 12 13 13 13 13 17 15 15 16 18 20 20 22 25 27 29 32 35 38 39 39 39 39 40
57 57 57 57 57 57 57 57 56 57 57 57 57 58 58 58 58 58 58 58 59 59 60 60 60 59 50 41 27 18 11 15 19 24 41 52 32 45 44 26 31 25 21 20 16 12 13 7 5 15 13 16 24 16 23 16 17 21 21 19 16 17 16 14 15 11 10 12 12 14 15 15 15 17 20 20 21 22 24 26 27 29 30 30 32 34 36 36
57 56 56 56 56 57 57 57 57 57 57 57 58 58 58 58 58 58 58 59 59 59 59 60 56 58 49 31 14 5 10 12 20 23 26 24 23 22 24 19 24 21 22 19 19 18 13 12 10 11 11 15 16 20 26 18 16 23 18 18 19 17 19 18 17 12 11 11 13 15 16 16 16 18 19 20 20 21 22 22 22 23 23 23 24 25 26 26
57 56 56 56 56 56 56 57 57 56 57 57 57 58 58 58 58 58 58 59 58 59 59 60 60 56 38 20 31 4 6 17 19 22 25 24 23 21 20 21 22 21 20 20 17 15 13 12 10 11 13 18 18 21 26 19 18 25 23 22 18 19 18 18 15 11 11 10 12 15 16 18 19 17 17 20 20 20 19 18 18 18 18 18 19 19 20 21
56 56 53 56 57 57 57 57 57 57 57 57 57 58 58 58 58 58 58 59 59 58 58 59 59 51 30 17 12 3 11 19 23 23 24 23 21 20 19 21 22 20 19 18 19 15 16 15 14 15 21 17 19 23 23 26 26 22 22 26 21 16 17 17 15 14 11 10 14 16 17 18 19 20 19 19 18 17 15 15 16 16 16 16 17 16 17 17
56 53 54 56 57 57 57 56 57 57 57 57 57 57 57 58 58 58 58 58 58 58 58 57 51 25 22 18 12 6 13 18 26 23 23 22 20 22 23 21 21 19 19 16 18 19 18 17 16 24 16 21 18 21 25 28 24 21 24 18 21 18 12 15 15 13 13 10 14 13 14 18 19 18 20 19 16 14 14 14 15 16 16 17 18 17 18 18
55 55 55 56 57 57 56 57 56 56 57 57 57 58 57 57 57 57 58 57 58 58 57 54 38 29 28 19 13 15 21 24 25 20 20 22 22 22 22 22 21 20 20 17 16 20 23 22 15 15 24 20 25 19 31 27 24 23 19 19 17 17 13 16 16 13 11 13 17 14 12 18 17 18 19 19 16 14 14 15 15 15 16 17 18 18 18 18
55 56 56 56 56 56 56 56 56 56 57 57 57 57 57 57 57 57 58 58 58 57 58 52 36 30 24 17 19 19 22 27 20 19 20 22 21 20 21 23 21 21 21 20 23 26 23 23 20 28 34 24 23 28 20 18 26 16 24 19 11 10 8 18 19 17 13 15 16 15 15 17 17 17 17 16 14 14 14 14 15 15 16 17 18 17 17 17
55 56 56 56 56 56 56 56 56 56 56 57 57 57 57 57 57 57 58 58 57 58 54 46 33 33 22 22 20 28 44 26 18 18 21 23 22 19 19 23 20 21 23 23 25 29 26 29 25 23 26 29 30 28 22 18 18 21 14 12 18 10 17 17 19 19 12 16 17 20 18 17 16 15 15 15 15 15 14 14 14 15 16 17 17 16 16 16
55 55 56 56 56 56 56 56 56 56 57 57 56 57 56 57 57 56 57 56 58 55 48 41 38 27 25 16 16 44 22 16 17 19 20 24 23 21 23 22 20 19 19 25 28 26 26 24 25 28 24 24 24 17 17 12 17 16 10 18 9 11 16 18 19 20 21 18 20 21 18 16 15 15 15 15 15 14 14 14 14 15 16 16 16 16 16 16
55 55 55 55 55 56 56 56 56 57 57 56 57 57 57 56 56 54 55 54 51 47 35 36 36 33 21 20 19 17 16 18 19 19 19 24 24 23 22 19 18 19 23 21 18 19 20 19 28 27 27 21 23 21 14 11 8 7 18 7 17 9 12 11 20 21 23 20 18 20 18 16 15 14 15 15 14 14 14 14 14 15 15 16 16 16 16 16
55 55 55 55 55 55 56 56 56 56 56 55 55 54 56 53 53 51 44 43 44 44 41 38 34 28 20 17 14 15 20 20 19 19 19 21 25 22 20 19 19 15 16 16 17 15 16 15 22 17 19 22 18 15 11 9 10 3 8 12 15 16 17 19 19 23 21 23 18 16 16 14 14 14 14 14 14 14 14 14 14 15 15 15 15 15 15 15
54 54 54 54 55 55 56 56 56 56 56 53 51 50 49 47 45 40 40 36 36 28 25 25 29 20 19 20 17 19 20 19 18 20 21 22 23 24 24 20 15 13 17 12 15 16 21 20 24 17 15 17 17 19 13 18 15 14 15 13 12 15 13 16 20 22 22 19 20 16 15 13 13 13 13 14 14 14 14 14 15 14 15 15 15 15 14 14
54 54 54 54 55 55 55 55 56 56 54 50 41 45 40 29 28 23 37 35 28 26 26 32 27 29 21 20 21 22 23 19 17 21 21 24 28 18 19 20 22 16 20 16 20 24 29 17 21 13 16 19 21 21 20 17 18 20 20 19 15 15 22 19 20 22 23 19 15 15 14 14 15 14 13 13 13 13 14 14 15 15 15 15 14 14 14 13
53 53 53 54 54 55 55 56 56 56 52 46 44 36 24 24 21 20 25 26 26 34 35 33 32 24 22 24 23 21 18 18 19 20 22 24 22 17 16 19 20 17 23 30 27 29 27 18 22 25 21 17 16 20 21 22 22 20 19 18 17 19 16 18 18 20 24 20 15 15 15 16 15 14 14 14 14 13 13 14 14 14 14 14 15 15 14 13
53 53 53 54 54 55 55 56 56 55 51 49 44 29 31 34 33 30 29 18 32 35 34 33 32 22 23 23 22 20 19 18 17 20 23 25 20 14 22 17 19 15 26 29 26 23 21 18 26 21 22 23 22 23 23 24 24 22 17 16 18 18 20 19 22 21 20 19 15 15 15 15 14 13 13 13 14 15 15 15 14 14 15 14 15 15 14 12
53 53 53 53 54 55 55 55 54 52 48 43 44 43 42 46 47 50 35 27 24 31 35 34 28 23 19 21 23 22 20 20 20 20 23 26 24 23 28 19 22 25 24 23 18 16 14 24 20 24 23 24 23 24 24 24 24 19 16 17 17 19 17 17 19 21 20 20 14 15 14 14 14 13 13 14 14 15 16 16 16 16 14 14 14 14 14 12
52 52 53 53 54 54 55 54 53 50 46 46 44 44 45 47 44 39 34 24 23 30 35 32 29 25 21 18 21 22 20 23 21 18 24 26 26 27 26 24 23 24 21 28 24 20 18 23 22 24 26 22 24 22 23 21 16 22 22 17 17 16 17 16 17 18 21 20 18 15 14 13 13 12 12 13 14 14 16 15 16 16 16 15 15 14 13 11
52 52 52 53 54 54 55 53 45 45 47 43 45 47 46 45 47 43 34 25 26 29 32 33 31 23 22 22 26 24 25 25 22 22 25 25 26 28 26 26 25 20 24 30 28 27 24 23 23 22 19 21 22 20 22 21 14 14 20 22 18 17 18 17 17 15 13 13 16 15 11 10 13 11 11 12 13 13 14 15 15 15 15 15 12 12 12 11
51 52 52 53 54 54 54 39 38 45 44 41 42 46 45 43 46 45 29 25 16 21 31 24 26 22 23 21 24 29 28 22 21 23 35 26 29 27 27 20 26 22 28 29 22 20 20 21 22 24 21 22 21 18 21 22 15 14 18 19 18 16 16 16 16 16 14 15 16 16 11 10 13 11 11 12 12 13 14 15 14 14 13 13 13 12 11 9
51 52 52 53 54 53 40 31 43 45 33 39 46 46 45 45 45 42 26 15 12 22 20 27 23 25 25 24 25 26 12 16 19 24 23 27 25 30 24 21 26 29 28 29 23 15 23 23 19 20 19 21 19 14 18 18 18 17 19 18 17 17 17 16 16 16 13 13 18 14 13 10 10 11 13 12 11 12 13 14 14 14 13 12 12 12 12 10
51 52 52 53 54 49 37 36 37 40 30 39 45 45 44 44 46 42 24 7 -2 29 22 26 25 30 22 24 22 21 16 20 21 22 25 27 29 27 23 24 22 24 27 27 8 23 25 24 21 21 20 15 13 15 17 21 16 18 19 21 19 18 17 16 18 16 13 13 12 12 14 10 10 11 13 11 10 11 12 14 14 15 14 13 13 13 12 10
51 52 52 53 52 47 43 36 39 34 36 43 41 43 45 45 40 30 15 -3 5 22 31 23 32 21 25 27 21 27 29 27 17 23 27 30 22 24 20 25 24 23 26 26 14 18 27 23 24 21 17 10 18 19 19 21 16 22 20 19 17 17 17 16 15 18 15 13 11 11 12 10 8 12 12 12 11 10 12 13 14 15 15 15 14 13 12 12
52 52 53 53 48 44 44 45 42 38 43 42 44 44 44 38 25 12 4 -5 18 11 22 24 19 19 28 27 24 20 14 21 27 26 28 21 21 23 28 28 27 22 17 23 23 19 20 28 29 25 16 18 19 20 22 18 19 24 20 16 15 13 13 12 13 14 16 10 10 11 12 9 7 10 11 11 11 15 12 12 14 15 15 15 15 14 13 12
52 52 52 50 46 40 39 30 35 44 44 46 46 44 35 29 20 13 -3 7 20 16 28 25 22 29 24 16 11 20 24 26 21 28 22 28 22 23 25 22 27 18 10 13 19 20 27 27 25 24 29 21 20 19 21 22 21 20 15 10 9 9 10 11 14 15 10 7 9 9 10 11 8 10 11 14 16 15 12 13 13 13 14 15 15 14 13 12
52 52 51 50 49 49 34 31 39 44 44 45 45 39 29 18 25 -0 3 25 10 15 12 15 25 22 22 23 13 16 15 21 23 23 19 18 19 17 17 13 15 8 6 4 9 13 19 17 20 24 28 19 18 13 17 20 19 16 12 12 7 6 5 3 8 6 7 6 11 9 11 10 8 12 14 14 12 12 13 13 12 13 13 13 14 14 14 15
51 51 49 47 47 47 43 40 43 44 44 43 35 30 26 18 -5 5 12 16 9 15 16 24 22 19 18 15 9 16 22 11 19 22 25 24 20 18 22 18 17 5 2 3 3 4 4 14 15 17 18 21 16 8 9 10 11 11 8 12 7 3 2 2 1 2 3 4 6 8 12 9 11 12 14 12 9 10 11 12 12 13 13 14 14 15 16 16
51 49 48 46 45 43 44 43 43 45 43 44 37 20 29 13 -6 18 17 11 10 24 23 19 19 16 17 6 10 13 5 16 18 18 24 16 18 13 18 21 20 17 11 7 2 3 5 -1 5 12 7 17 16 15 13 12 12 11 10 8 10 8 6 5 4 2 7 6 7 9 11 8 10 11 14 11 10 10 10 12 14 15 16 16 16 16 16 16
50 47 48 47 46 44 43 42 44 45 43 38 30 23 13 2 4 11 16 15 19 21 16 19 8 5 6 7 10 14 10 9 13 14 18 14 12 14 15 15 20 18 15 10 11 12 4 4 8 13 15 16 14 19 19 17 11 12 12 10 11 12 12 6 7 8 9 8 8 12 10 12 11 12 14 13 12 11 13 14 16 16 16 17 16 15 15 15
49 47 46 43 47 43 42 42 42 43 37 36 25 15 8 11 12 7 17 25 21 17 19 14 6 4 5 6 10 14 16 13 15 13 14 16 15 12 16 17 17 19 18 14 16 7 8 0 11 14 16 13 15 19 18 18 8 9 9 11 11 13 11 12 6 6 7 8 8 13 10 10 12 12 13 14 14 15 16 17 16 15 13 13 11 11 13 14
46 44 35 43 44 43 42 42 42 36 37 32 26 12 11 11 14 16 26 23 20 20 15 14 9 8 10 11 7 18 18 15 17 12 7 14 12 16 15 17 20 19 21 18 15 17 11 9 11 10 10 17 18 19 17 18 15 14 11 10 13 13 11 14 9 10 9 8 6 11 12 11 10 7 13 12 13 14 15 17 17 13 14 11 9 7 11 13
49 42 40 44 41 43 43 42 41 36 37 28 24 22 21 18 24 28 29 28 23 18 12 5 11 9 16 10 10 17 19 18 13 12 6 10 10 18 17 17 18 20 22 22 13 19 14 11 7 9 11 13 12 17 14 19 19 12 11 14 14 10 9 12 12 9 9 9 8 8 10 11 11 11 10 11 12 13 12 15 16 12 12 10 7 5 10 11
41 43 34 33 39 41 44 39 38 37 31 24 22 21 24 22 23 28 28 28 23 15 12 13 13 18 11 13 15 16 17 13 16 10 8 10 8 17 18 19 16 21 23 22 16 16 13 10 8 9 10 9 10 13 12 12 17 16 16 13 13 15 12 11 12 12 11 9 9 10 13 11 13 13 12 11 12 12 10 12 10 8 10 8 5 3 5 8
35 39 34 35 36 41 40 40 35 28 24 20 24 21 18 22 29 31 31 27 18 13 15 13 14 20 14 14 15 16 17 18 14 12 11 12 9 21 19 22 20 21 23 20 17 18 14 8 7 7 10 9 9 12 11 11 14 13 13 15 14 15 12 14 13 12 10 10 9 8 7 10 9 11 11 11 11 11 11 10 9 7 8 7 2 2 4 5
35 40 38 38 37 41 42 34 26 23 23 21 24 21 30 26 29 24 30 32 28 25 16 15 14 14 14 15 16 15 17 15 13 14 12 14 13 13 23 22 24 22 26 19 17 18 19 12 11 9 9 7 10 12 13 12 10 10 12 12 12 11 10 8 6 15 13 10 9 8 6 11 9 10 10 10 10 9 8 8 7 5 4 4 2 1 3 2
40 29 26 37 38 40 38 28 26 22 24 22 19 23 30 35 23 21 25 24 23 21 22 20 19 17 17 14 15 16 15 16 12 13 13 17 17 16 20 23 24 25 24 14 15 20 19 14 12 11 7 7 10 12 14 10 9 8 8 9 12 12 12 9 5 10 11 12 11 10 8 7 9 8 8 7 8 7 6 5 5 4 4 2 1 2 4 0
31 20 29 36 37 39 28 22 27 28 24 24 24 24 25 25 23 23 21 23 16 20 17 17 18 14 16 18 17 16 14 16 12 14 13 14 18 20 25 25 25 25 26 16 17 18 22 12 11 8 5 9 11 13 15 15 12 10 9 9 10 10 13 10 10 10 8 10 8 7 6 7 8 8 7 7 6 6 6 5 5 4 3 1 -2 0 -1 -1
33 27 30 39 37 41 29 18 19 23 26 24 22 21 23 26 23 21 21 24 19 19 17 17 17 19 17 20 18 15 17 14 12 13 14 15 15 23 26 27 25 19 20 17 15 21 12 10 13 7 6 7 8 9 11 12 13 9 9 8 9 9 11 12 13 9 8 9 8 7 3 7 8 8 7 6 6 6 6 5 4 3 2 0 -2 -2 -2 -1
28 29 30 29 30 32 24 23 22 22 23 16 16 16 18 22 27 26 23 21 24 19 19 17 19 20 18 19 18 18 16 14 19 15 16 20 16 23 24 24 22 20 23 28 28 29 15 14 10 1 1 -2 -3 -1 5 9 14 11 7 9 11 12 11 12 6 7 4 7 5 4 3 7 8 8 7 6 6 6 6 5 4 3 2 -1 -2 -2 -2 -2
31 15 27 28 27 26 25 28 26 20 20 19 21 13 17 16 17 24 26 23 23 22 21 20 20 19 17 15 14 14 14 15 15 18 18 19 19 16 21 18 24 20 27 26 25 17 16 13 10 11 6 2 9 12 10 13 10 11 12 11 13 12 9 11 9 6 4 7 6 5 6 6 5 7 8 8 7 6 5 4 2 1 -0 -2 -3 -3 -2 -2
27 23 20 23 32 26 19 24 24 23 18 17 17 16 21 17 15 17 26 16 22 21 20 21 21 18 17 16 13 13 15 13 15 20 17 18 21 18 16 19 20 22 27 28 21 17 14 14 13 13 14 13 9 9 8 10 8 7 11 12 12 12 13 13 7 5 8 6 -5 7 7 7 3 7 6 6 6 5 4 3 2 0 -1 -3 -2 -2 2 -3
25 20 22 19 25 17 23 19 22 21 22 24 20 16 20 16 18 22 18 21 22 22 9 13 20 21 21 18 15 16 15 13 16 18 21 16 18 20 18 15 16 19 22 17 17 17 16 10 16 14 14 10 7 7 8 8 8 8 9 9 10 11 13 10 9 7 6 5 1 2 4 5 3 6 6 6 5 4 3 2 1 0 -2 -2 -2 -2 -3 -4
27 23 26 26 25 17 18 15 24 25 23 22 21 20 21 19 20 19 18 17 14 17 20 20 18 20 21 21 18 20 17 16 17 18 18 21 19 18 18 17 18 16 14 17 17 15 17 12 18 14 13 8 7 8 8 8 8 9 10 8 8 9 10 10 9 8 7 6 4 3 4 5 5 6 6 6 5 3 2 2 0 -2 -3 -1 -2 -3 -4 -5
26 30 16 25 24 21 20 21 19 21 20 21 21 18 20 19 18 20 22 19 20 16 23 18 20 20 20 21 18 19 20 17 18 19 18 20 17 17 16 12 16 17 13 16 17 17 11 3 15 11 9 8 7 9 9 8 9 8 7 8 8 8 8 8 8 8 8 5 3 3 5 5 6 7 6 5 4 3 2 1 -1 -3 -3 -2 -3 -3 -4 -5
31 32 30 22 19 18 24 19 15 17 18 21 17 18 20 20 18 21 21 24 23 20 24 20 22 20 20 20 21 21 23 21 19 21 21 19 15 14 12 13 18 15 17 18 18 19 14 4 6 6 -7 -9 8 7 6 8 8 8 6 6 7 7 10 9 9 9 7 7 6 7 6 4 5 6 5 4 3 2 1 -0 -2 -4 -3 -2 -4 -4 -5 -6
36 33 32 30 19 19 15 16 18 20 18 16 23 21 20 21 22 22 20 21 28 27 27 27 25 18 18 20 21 22 25 25 25 25 24 21 16 12 14 14 14 13 12 15 12 11 12 11 4 3 -8 -8 5 1 -1 6 7 6 6 6 8 7 8 8 9 8 6 5 7 4 2 4 5 5 3 3 3 1 -0 -2 -4 -4 -3 -3 -4 -4 -6 -7